Overview Statistics Trail Chart Weather Telemetry Raw packets
 

This is the latest recevied weather packets stored in our database for station/object K7DC. If no packets are shown the sender has not sent any weather packets the latest 10 day(s).

<< 43 44 45 46 47 48 49 >>
Time Temp. Humidity Pressure Rain* Wind** Luminosity Snow
1788345041 22.78° C 76% 1017.4 hPa 0 mm - 0 W/m² -
1788344738 23.33° C 72% 1017.6 hPa 0 mm - 0 W/m² -
1788344454 23.33° C 73% 1017.3 hPa 0 mm - 0 W/m² -
1788344130 23.33° C 75% 1017.3 hPa 0 mm - 0 W/m² -
1788343828 23.33° C 74% 1017.3 hPa 0 mm - 0 W/m² -
1788343529 23.33° C 71% 1017.2 hPa 0 mm - 0 W/m² -
1788343228 23.33° C 72% 1017.2 hPa 0 mm - 0 W/m² -
1788342928 23.89° C 71% 1017.1 hPa 0 mm - 0 W/m² -
1788342627 23.89° C 72% 1017.6 hPa 0 mm - 0 W/m² -
1788342323 23.89° C 71% 1017.2 hPa 0 mm - 0 W/m² -
1788342018 23.89° C 70% 1017.2 hPa 0 mm - 0 W/m² -
1788341713 23.89° C 70% 1017.1 hPa 0 mm - 0 W/m² -
1788341413 24.44° C 70% 1017.4 hPa 0 mm - 0 W/m² -
1788341108 24.44° C 69% 1017.1 hPa 0 mm - 0 W/m² -
1788340803 24.44° C 69% 1017.1 hPa 0 mm - 0 W/m² -
1788340498 24.44° C 69% 1017.4 hPa 0 mm - 0 W/m² -
1788340194 23.89° C 71% 1017.1 hPa 0 mm - 0 W/m² -
1788339889 23.89° C 72% 1017.4 hPa 0 mm - 0 W/m² -
1788339588 23.89° C 73% 1017.2 hPa 0 mm - 0 W/m² -
1788339283 23.89° C 72% 1017.3 hPa 0 mm - 0 W/m² -
1788338978 23.89° C 70% 1017.3 hPa 0 mm - 0 W/m² -
1788338675 23.89° C 72% 1017.2 hPa 0 mm - 0 W/m² -
1788338371 23.89° C 73% 1017.2 hPa 0 mm - 0 W/m² -
1788338071 23.89° C 73% 1017.3 hPa 0 mm - 0 W/m² -
1788337771 23.89° C 73% 1017.4 hPa 0 mm - 0 W/m² -

* Rain latest hour (hover to see other rain measurements)
** Current wind speed in m/s (hover to see current wind gust speed)